CW8322 Weather Reports


Display with metric or nautical units.
time (UTC)temp
F
wind
direction
speed
MPH
gust
MPH
rain 1hr
in
rain 24hr
in
rain mn
in
humidity
%
barometer
mb
20260504024032 42 299 0.0 0.0 0.00 0.00 0.00 55 1018.2
20260504023538 42 299 0.0 0.0 0.00 0.00 0.00 54 1018.3
20260504023059 42 299 0.0 0.0 0.00 0.00 0.00 55 1018.3
20260504022559 42 299 0.0 0.0 0.00 0.00 0.00 54 1018.2
20260504022055 42 299 0.0 0.0 0.00 0.00 0.00 53 1018.1
20260504021508 43 299 0.0 0.0 0.00 0.00 0.00 52 1017.9
20260504021008 43 299 0.0 0.0 0.00 0.00 0.00 50 1017.9
20260504020634 43 299 0.0 0.0 0.00 0.00 0.00 51 1017.8
20260504020043 43 299 0.0 0.0 0.00 0.00 0.00 50 1017.9
20260504015535 44 299 0.0 0.0 0.00 0.00 0.00 50 1017.8
20260504015030 44 299 0.0 0.0 0.00 0.00 0.00 48 1017.7
20260504014605 44 299 0.0 0.0 0.00 0.00 0.00 49 1017.7
20260504014058 44 299 0.0 0.0 0.00 0.00 0.00 48 1017.8
20260504013600 45 360 0.0 0.0 0.00 0.00 0.00 48 1017.7
20260504013037 45 360 0.0 0.0 0.00 0.00 0.00 50 1017.6
20260504012518 45 360 0.0 3.0 0.00 0.00 0.00 48 1017.7
20260504012014 45 360 1.0 3.0 0.00 0.00 0.00 49 1017.6
20260504011555 46 360 0.0 1.0 0.00 0.00 0.00 48 1017.5
20260504011052 46 360 0.0 4.0 0.00 0.00 0.00 46 1017.5
20260504010542 46 360 2.0 4.0 0.00 0.00 0.00 46 1017.4
20260504010112 47 360 0.0 3.0 0.00 0.00 0.00 45 1017.3
20260504005603 47 360 1.0 3.0 0.00 0.00 0.00 43 1017.3
20260504005105 48 360 0.0 1.0 0.00 0.00 0.00 41 1017.3
20260504004509 48 360 0.0 1.0 0.00 0.00 0.00 41 1017.2
20260504004028 48 360 0.0 0.0 0.00 0.00 0.00 41 1017.0
20260504003506 49 360 0.0 0.0 0.00 0.00 0.00 41 1017.0
20260504003053 49 360 0.0 2.0 0.00 0.00 0.00 39 1017.0
20260504002546 49 360 0.0 2.0 0.00 0.00 0.00 41 1017.0
20260504002044 49 360 0.0 2.0 0.00 0.00 0.00 42 1017.0
20260504001606 50 360 0.0 2.0 0.00 0.00 0.00 39 1017.2
20260504001103 50 360 0.0 2.0 0.00 0.00 0.00 38 1017.1
20260504000021 50 360 0.0 1.0 0.00 0.00 0.00 41 1016.9
20260503235628 50 360 0.0 2.0 0.00 0.00 0.00 40 1017.0
20260503235002 50 360 0.0 2.0 0.00 0.00 0.00 40 1017.1
20260503234553 50 360 0.0 1.0 0.00 0.00 0.00 41 1017.1
20260503234054 51 360 0.0 3.0 0.00 0.00 0.00 40 1017.0
20260503233545 51 360 0.0 3.0 0.00 0.00 0.00 37 1016.9
20260503233146 52 360 0.0 2.0 0.00 0.00 0.00 38 1016.9
20260503232611 53 360 0.0 5.0 0.00 0.00 0.00 31 1016.9
20260503232104 53 360 1.0 5.0 0.00 0.00 0.00 33 1017.0
20260503231508 53 360 1.0 6.0 0.00 0.00 0.00 33 1016.9
20260503231002 53 360 2.0 5.0 0.00 0.00 0.00 33 1016.8
20260503230502 54 360 0.0 3.0 0.00 0.00 0.00 28 1017.0
20260503230042 54 360 1.0 3.0 0.00 0.00 0.00 31 1017.0
20260503225534 54 360 1.0 4.0 0.00 0.00 0.00 31 1017.1
20260503225037 54 360 2.0 4.0 0.00 0.00 0.00 29 1017.1
20260503224602 54 50 0.0 3.0 0.00 0.00 0.00 30 1017.1
20260503224057 54 49 1.0 3.0 0.00 0.00 0.00 28 1017.0
20260503223547 55 360 0.0 5.0 0.00 0.00 0.00 28 1017.1
20260503223002 55 360 0.0 5.0 0.00 0.00 0.00 26 1017.2
20260503222612 55 360 1.0 4.0 0.00 0.00 0.00 27 1017.1
20260503222002 55 360 0.0 5.0 0.00 0.00 0.00 29 1017.1
20260503221553 55 360 1.0 10.0 0.00 0.00 0.00 28 1017.0
20260503221042 55 340 3.0 10.0 0.00 0.00 0.00 28 1017.1
20260503220544 55 360 1.0 6.0 0.00 0.00 0.00 25 1017.2
20260503220034 55 360 1.0 6.0 0.00 0.00 0.00 26 1017.3
20260503215533 55 360 3.0 6.0 0.00 0.00 0.00 23 1017.4
20260503215035 56 360 1.0 5.0 0.00 0.00 0.00 24 1017.5
20260503214558 55 360 2.0 9.0 0.00 0.00 0.00 25 1017.5
20260503214056 55 360 0.0 9.0 0.00 0.00 0.00 23 1017.3
20260503213554 56 360 3.0 11.0 0.00 0.00 0.00 21 1017.4
20260503213002 57 360 1.0 6.0 0.00 0.00 0.00 23 1017.4
20260503212608 55 360 1.0 6.0 0.00 0.00 0.00 27 1017.4
20260503212107 55 360 2.0 5.0 0.00 0.00 0.00 23 1017.6
20260503211547 56 360 2.0 8.0 0.00 0.00 0.00 22 1017.6
20260503211039 55 360 2.0 10.0 0.00 0.00 0.00 24 1017.5
20260503210545 56 360 2.0 9.0 0.00 0.00 0.00 20 1017.8
20260503210106 55 360 4.0 8.0 0.00 0.00 0.00 22 1017.7
20260503205606 56 360 2.0 4.0 0.00 0.00 0.00 26 1017.6
20260503205103 56 360 2.0 5.0 0.00 0.00 0.00 23 1017.8
20260503204506 56 360 2.0 8.0 0.00 0.00 0.00 26 1017.6
20260503204002 55 360 2.0 8.0 0.00 0.00 0.00 26 1017.7
20260503203629 56 360 3.0 8.0 0.00 0.00 0.00 33 1017.9
20260503203100 56 360 3.0 8.0 0.00 0.00 0.00 34 1017.8
20260503202546 55 360 2.0 5.0 0.00 0.00 0.00 29 1018.0
20260503202042 55 360 1.0 13.0 0.00 0.00 0.00 29 1018.0
20260503201604 56 360 4.0 13.0 0.00 0.00 0.00 26 1018.1
20260503201108 55 360 2.0 6.0 0.00 0.00 0.00 27 1018.1
20260503200503 55 360 0.0 8.0 0.00 0.00 0.00 33 1018.2
20260503200044 55 360 3.0 8.0 0.00 0.00 0.00 27 1018.1
20260503195546 55 360 2.0 8.0 0.00 0.00 0.00 33 1018.3
20260503195035 55 360 2.0 10.0 0.00 0.00 0.00 34 1018.4
20260503194604 55 360 3.0 12.0 0.00 0.00 0.00 34 1018.5
20260503194102 56 360 3.0 12.0 0.00 0.00 0.00 34 1018.5
20260503193602 55 360 1.0 9.0 0.00 0.00 0.00 34 1018.4
20260503193026 55 267 3.0 9.0 0.00 0.00 0.00 38 1018.5
20260503192503 55 360 2.0 5.0 0.00 0.00 0.00 37 1018.4
20260503192007 55 360 2.0 5.0 0.00 0.00 0.00 40 1018.5
20260503191555 56 267 3.0 6.0 0.00 0.00 0.00 36 1018.5
20260503191057 55 268 3.0 6.0 0.00 0.00 0.00 39 1018.5
20260503190557 56 360 3.0 6.0 0.00 0.00 0.00 37 1018.7
20260503190039 56 313 3.0 10.0 0.00 0.00 0.00 45 1018.6
20260503185630 56 360 2.0 10.0 0.00 0.00 0.00 37 1018.7
20260503185041 56 360 1.0 5.0 0.00 0.00 0.00 41 1018.6
20260503184612 55 360 1.0 9.0 0.00 0.00 0.00 40 1018.6
20260503184110 56 360 2.0 9.0 0.00 0.00 0.00 40 1018.6
20260503183607 57 360 2.0 5.0 0.00 0.00 0.00 43 1018.7
20260503183035 57 360 1.0 9.0 0.00 0.00 0.00 40 1018.6
20260503182513 56 360 3.0 9.0 0.00 0.00 0.00 47 1018.6
20260503182011 56 360 4.0 10.0 0.00 0.00 0.00 39 1018.9
20260503181602 55 360 2.0 10.0 0.00 0.00 0.00 41 1018.8
20260503181049 55 360 3.0 8.0 0.00 0.00 0.00 38 1018.9
20260503180552 56 360 2.0 9.0 0.00 0.00 0.00 39 1018.9
20260503180004 56 360 2.0 9.0 0.00 0.00 0.00 41 1019.0
20260503175605 56 360 3.0 6.0 0.00 0.00 0.00 44 1018.9
20260503175104 55 360 3.0 7.0 0.00 0.00 0.00 39 1018.9
20260503174535 55 186 1.0 6.0 0.00 0.00 0.00 44 1019.0
20260503174007 56 360 0.0 7.0 0.00 0.00 0.00 43 1019.0
20260503173506 56 360 1.0 5.0 0.00 0.00 0.00 41 1019.2
20260503173055 55 336 1.0 6.0 0.00 0.00 0.00 46 1019.0
20260503172549 55 159 2.0 6.0 0.00 0.00 0.00 40 1019.2
20260503172043 55 253 2.0 10.0 0.00 0.00 0.00 39 1019.2
20260503171643 55 17 2.0 10.0 0.00 0.00 0.00 46 1019.3
20260503171130 54 360 2.0 6.0 0.00 0.00 0.00 43 1019.3
20260503170557 55 360 1.0 11.0 0.00 0.00 0.00 43 1019.2
20260503150548 46 238 3.0 5.0 0.00 0.00 0.00 40 1019.9
20260503131029 39 360 0.0 0.0 0.00 0.00 0.00 62 1019.3
20260503130514 38 154 0.0 0.0 0.00 0.00 0.00 63 1019.3
20260503110536 34 360 0.0 0.0 0.00 0.00 0.00 69 1017.5
20260503081518 34 360 0.0 0.0 0.00 0.00 0.00 66 1016.2
20260503081028 34 155 0.0 0.0 0.00 0.00 0.00 66 1016.1
20260503080530 34 155 0.0 0.0 0.00 0.00 0.00 65 1015.9
20260503072513 35 360 0.0 0.0 0.00 0.00 0.00 64 1015.6
20260503072012 35 360 0.0 0.0 0.00 0.00 0.00 64 1015.5
20260503071604 35 360 0.0 0.0 0.00 0.00 0.00 64 1015.4
20260503071054 36 156 0.0 0.0 0.00 0.00 0.00 64 1015.3
20260503070553 36 155 0.0 0.0 0.00 0.00 0.00 64 1015.3
20260503060108 38 156 0.0 0.0 0.00 0.00 0.00 61 1015.5
20260503055055 38 155 0.0 0.0 0.00 0.00 0.00 61 1015.3
20260503054508 39 155 0.0 0.0 0.00 0.00 0.00 61 1015.4
20260503054132 39 360 0.0 2.0 0.00 0.00 0.00 61 1015.3
20260503053606 39 156 0.0 2.0 0.00 0.00 0.00 61 1015.5
20260503053043 39 360 0.0 2.0 0.00 0.00 0.00 60 1015.6
20260503052543 39 360 0.0 4.0 0.00 0.00 0.00 60 1015.4
20260503052038 39 360 0.0 4.0 0.00 0.00 0.00 60 1015.4
20260503051605 39 360 0.0 3.0 0.00 0.00 0.00 61 1015.4
20260503051122 39 360 0.0 3.0 0.00 0.00 0.00 61 1015.4
20260503050600 38 360 1.0 3.0 0.00 0.00 0.00 62 1015.6
20260503050005 38 360 0.0 3.0 0.00 0.00 0.00 63 1015.6
20260503045610 38 360 0.0 3.0 0.00 0.00 0.00 64 1015.6
20260503045104 37 360 0.0 2.0 0.00 0.00 0.00 65 1015.5
20260503044508 37 360 0.0 0.0 0.00 0.00 0.00 67 1015.4
20260503044134 37 360 0.0 0.0 0.00 0.00 0.00 67 1015.5
20260503043506 37 360 0.0 2.0 0.00 0.00 0.00 67 1015.3
20260503043056 37 360 0.0 2.0 0.00 0.00 0.00 67 1015.3
20260503042546 37 360 0.0 0.0 0.00 0.00 0.00 66 1015.2
20260503042046 37 360 0.0 0.0 0.00 0.00 0.00 66 1015.4
20260503041644 37 360 0.0 0.0 0.00 0.00 0.00 65 1015.2
20260503041108 37 360 0.0 0.0 0.00 0.00 0.00 65 1015.3
20260503040600 37 360 0.0 0.0 0.00 0.00 0.00 65 1015.2
20260503040011 37 360 0.0 0.0 0.00 0.00 0.00 65 1015.1
20260503035628 37 360 0.0 0.0 0.00 0.00 0.00 64 1015.0
20260503035109 37 360 0.0 0.0 0.00 0.00 0.00 64 1015.0
20260503034538 37 360 0.0 0.0 0.00 0.00 0.00 63 1014.7
20260503034150 37 360 0.0 0.0 0.00 0.00 0.00 63 1015.0
20260503033534 37 360 0.0 0.0 0.00 0.00 0.00 62 1014.9
20260503033110 37 360 0.0 0.0 0.00 0.00 0.00 62 1014.8
20260503032550 38 360 0.0 0.0 0.00 0.00 0.00 61 1015.0
20260503032050 38 360 0.0 0.0 0.00 0.00 0.00 61 1014.9
20260503031506 38 360 0.0 0.0 0.00 0.00 0.00 60 1014.8
20260503031006 38 360 0.0 0.0 0.00 0.00 0.00 60 1014.9
20260503030524 38 360 0.0 0.0 0.00 0.00 0.00 60 1014.8
20260503030048 39 360 0.0 0.0 0.00 0.00 0.00 59 1014.9
20260503025542 39 360 0.0 0.0 0.00 0.00 0.00 59 1014.8
20260503025039 39 360 0.0 0.0 0.00 0.00 0.00 59 1014.7
20260503024613 39 360 0.0 0.0 0.00 0.00 0.00 59 1014.7